sat.trackr.live / text

‹ back to catalog

CZ-2F R/B

NORAD 69181 · 2026-113B

ROCKET_BODY UNKNOWN UNKNOWN

§ Identity

Operator
Country
PRC
Launch date
2026-05-24
Launch site
JSC
Launch vehicle
Mass (kg)
RCS (m²)

External: N2YO · Heavens-Above · Gunter

§ Orbital elements

Epoch: 2026-06-07T01:15:58.248864Z

Period
88.04 min
Inclination
41.4560°
Eccentricity
0.0039572
Mean motion
16.35707038 rev/d
Perigee alt
151.3 km
Apogee alt
203.2 km
Semi-major
6,555.4 km
B*
3.3387e-4
RAAN
17.1217°
Arg perigee
241.7538°
Mean anomaly
117.9330°
Rev number
217

§ Raw data

CZ-2F R/B1 69181U 26113B   26158.05275751  .04546966  79268-5  33387-3 0  99962 69181  41.4560  17.1217 0039572 241.7538 117.9330 16.35707038  2176

JSON: /api/v1/satellites/69181 · /tle

For live sub-satellite position, see the globe view (requires WebGL).

§ Visibility from observer

Set your observer location to see the next 7 days of passes ≥ 10°. The values pass through the URL so the page stays shareable.

No JS? Fill the form by hand. The geolocation button needs JavaScript.